Location: Newark
(52.3500°N, 175.9667°E)
Time: 21:33:54
(UTC+00:00)

Transit 4A - Pass Details

Date: 19 April 2021
Orbit: 871 x 974 km, 66.8° (Epoch: 16 May)

Event Time Altitude Azimuth Distance (km) Brightness Sun altitude
Rises 19:59:21 0° 320° (NW) 3,535 10.5 24.9°
Reaches altitude 10° 20:01:53 10° 321° (NW) 2,577 9.9 25.2°
Maximum altitude 20:07:51 88° 234° (SW) 889 8.3 26.1°
Drops below altitude 10° 20:13:41 10° 144° (SE) 2,518 11.1 27.0°
Sets 20:16:08 0° 144° (SE) 3,449 11.7 27.3°
